Location: Lombard
(41.8800°N, 88.0080°W)
Time: 23:01:16
(UTC-05:00)

Transit 2A - Pass Details

Date: 09 February 2023
Orbit: 591 x 964 km, 66.7° (Epoch: 20 March)

Event Time Altitude Azimuth Distance (km) Brightness Sun altitude
Rises 15:18:38 0° 207° (SSW) 2,966 10.3 18.3°
Reaches altitude 10° 15:20:49 10° 207° (SSW) 2,104 9.8 18.0°
Maximum altitude 15:25:36 87° 120° (ESE) 734 6.2 17.3°
Drops below altitude 10° 15:30:59 10° 31° (NNE) 2,360 8.0 16.5°
Sets 15:33:33 0° 31° (NNE) 3,357 8.7 16.1°
